Wetterdaten: aktuell Donnerstag, 02.04.2020 07:10
Datum Zeit Temp 2m Temp 2m ob Temp 10cm Feuchte 2 m Regen Wind mittel Richtung Richtung Taupunkt Windben
02.04.2020 07:10 -2,9 C -3,3 C -3,5 C 82 % 0,0 l/m 0,0 km/h O-SO 112 -5,5 C 0,0 km/h
02.04.2020 07:05 -2,9 C -3,2 C -3,4 C 81 % 0,0 l/m 0,0 km/h O-NO 67 -5,7 C 0,0 km/h
02.04.2020 07:00 -2,8 C -3,3 C -3,4 C 81 % 0,0 l/m 0,0 km/h O-NO 67 -5,6 C 0,0 km/h
02.04.2020 06:55 -2,8 C -3,2 C -3,3 C 82 % 0,0 l/m 0,0 km/h O-SO 112 -5,4 C 0,0 km/h
02.04.2020 06:50 -2,7 C -3,1 C -3,3 C 82 % 0,0 l/m 0,0 km/h O-SO 112 -5,3 C 0,0 km/h
02.04.2020 06:45 -2,7 C -3,0 C -3,3 C 82 % 0,0 l/m 0,0 km/h SO 135 -5,3 C 0,0 km/h
02.04.2020 06:40 -2,8 C -3,1 C -3,3 C 82 % 0,0 l/m 0,0 km/h O 90 -5,4 C 0,0 km/h
02.04.2020 06:35 -2,9 C -3,1 C -3,4 C 82 % 0,0 l/m 0,0 km/h O-SO 112 -5,5 C 0,0 km/h
02.04.2020 06:30 -2,9 C -3,1 C -3,4 C 81 % 0,0 l/m 0,0 km/h O 90 -5,7 C 0,0 km/h
02.04.2020 06:25 -2,9 C -3,2 C -3,4 C 81 % 0,0 l/m 0,0 km/h O 90 -5,7 C 0,0 km/h
02.04.2020 06:20 -2,9 C -3,2 C -3,4 C 81 % 0,0 l/m 0,0 km/h O 90 -5,7 C 0,0 km/h
02.04.2020 06:15 -2,9 C -3,0 C -3,3 C 80 % 0,0 l/m 0,0 km/h O 90 -5,9 C 0,0 km/h
02.04.2020 06:10 -2,8 C -2,9 C -3,3 C 79 % 0,0 l/m 0,0 km/h O 90 -5,9 C 0,0 km/h
02.04.2020 06:05 -2,8 C -2,9 C -3,3 C 79 % 0,0 l/m 0,0 km/h O 90 -5,9 C 0,0 km/h
02.04.2020 06:00 -2,7 C -2,9 C -3,3 C 80 % 0,0 l/m 0,0 km/h O-SO 112 -5,7 C 0,0 km/h
02.04.2020 05:55 -2,7 C -2,7 C -3,1 C 80 % 0,0 l/m 0,0 km/h SO 135 -5,7 C 0,0 km/h
02.04.2020 05:50 -2,5 C -2,6 C -3,0 C 79 % 0,0 l/m 0,0 km/h O-SO 112 -5,6 C 0,0 km/h
02.04.2020 05:45 -2,6 C -2,7 C -3,0 C 79 % 0,0 l/m 0,0 km/h O-NO 67 -5,7 C 0,0 km/h
02.04.2020 05:40 -2,7 C -2,8 C -3,2 C 80 % 0,0 l/m 0,0 km/h SO 135 -5,7 C 0,0 km/h
02.04.2020 05:35 -2,8 C -2,9 C -3,3 C 79 % 0,0 l/m 0,0 km/h SO 135 -5,9 C 0,0 km/h
02.04.2020 05:30 -2,7 C -2,9 C -3,3 C 80 % 0,0 l/m 0,0 km/h O-SO 112 -5,7 C 0,0 km/h
02.04.2020 05:25 -2,8 C -2,9 C -3,3 C 79 % 0,0 l/m 0,0 km/h O-SO 112 -5,9 C 0,0 km/h
02.04.2020 05:20 -2,7 C -2,8 C -3,2 C 78 % 0,0 l/m 0,0 km/h O-SO 112 -6,0 C 0,0 km/h
02.04.2020 05:15 -2,6 C -2,6 C -3,1 C 78 % 0,0 l/m 0,0 km/h O-SO 112 -5,9 C 0,0 km/h
02.04.2020 05:10 -2,6 C -2,6 C -3,1 C 78 % 0,0 l/m 0,0 km/h O-SO 112 -5,9 C 0,0 km/h
02.04.2020 05:05 -2,6 C -2,6 C -3,1 C 78 % 0,0 l/m 0,0 km/h O-NO 67 -5,9 C 0,0 km/h
_ Min-Zeit 08:05 08:00 08:05 17:55 - 08:00 - - 08:05 08:00
Minimum _ -4,7 C -5,3 C -5,4 C 36 % - 0,0 km/h - - -8,1 C 0,0 km/h
_ Max-Zeit 17:20 18:00 17:45 06:35 08:00 16:00 - - 09:35 15:25
Maximum _ 9,7 C 13,4 C 10,5 C 82 % 0,0 l/m 7,1 km/h
W
- - -2,8 C 15,9 km/h
W-SW
Durchschnitt _ 2,1 C 3,5 C 2,1 C 61 % #0,0 l/m 1,4 km/h W-SW - -5,1 C 2,0 km/h